Жаркент

Казахстан     44°10′09″N   80°00′13″E
В апреле 2022 года жителям России запретили посещать сайт meteo.paraplan.net по решению Генеральной прокуратуры. Аудитория сайта уменьшилась в 10 раз. Владельцы сайта не видят смысла в поддержке погодного сервера в таких условиях. Сайт будет закрыт в октябре.
темп.,
°C
ветер,
м/с
пор.,
м/с
влажн.,
%
обл.,
%
осадки,
мм/ч
давл.,
гПа
погр.,
м
30 сентября, пт
пт3000:00+10всв2248100 0.0 101543
03:00+9всв4652100 0.0 1016169
06:00+9всв3651100 0.0 1016205
09:00+11в3344100 0.0 1017533
12:00+14юз2237100 0.0 10161245
15:00+16ююз5535100 0.0 10151609
18:00+13ююз344199 0.0 1015332
21:00+11зюз244298 0.0 1017199
1 октября, сб
сб100:00+9ююв1241100 0.0 1018134
03:00+8в2338100 0.0 1019209
06:00+5в233844 0.0 102281
09:00+8вюв343435 0.0 1023516
12:00+12вюв44235 0.0 10221171
15:00+14вюв332172 0.0 10211641
18:00+11ююв22244 0.0 102244
21:00+7всв22270 0.0 102518
2 октября, вс
вс200:00+6всв22300 0.0 102519
03:00+5всв33310 0.0 102531
06:00+3св11320 0.0 102610
09:00+10св12190 0.0 1025389
12:00+14юв22150 0.0 10231355
15:00+17юв22120 0.0 10201543
18:00+13вюв22190 0.0 102011
21:00+11с33220 0.0 102119
3 октября, пн
пн300:00+10с22260 0.0 102015
03:00+8ссв11240 0.0 101911
06:00+8ссз11245 0.0 101810
09:00+14юз012015 0.0 1018254
12:00+19ююв2219100 0.0 1016832
15:00+21ю221725 0.0 10131150
18:00+17з2223100 0.0 101311
21:00+16ссз2225100 0.0 101411
4 октября, вт
вт400:00+13вюв2231100 0.0 101611
03:00+12в3333100 0.0 101633
06:00+13в3433100 0.0 101874
09:00+16св342799 0.0 1019288
12:00+20ююв22306 0.0 10181950
15:00+21ю32255 0.0 10162009
18:00+18ююз223142 0.0 101712
21:00+16ссв2236100 0.0 102012